GW1920 Weather Reports


Display with metric or nautical units.
time (UTC)temp
F
wind
direction
speed
MPH
gust
MPH
rain 1hr
in
rain 24hr
in
rain mn
in
humidity
%
barometer
mb
20260506073027 53 6 0.0 0.0 0.00 0.00 0.00 99 1013.4
20260506072524 53 6 0.0 0.0 0.00 0.00 0.00 99 1013.3
20260506072022 53 6 0.0 0.0 0.00 0.00 0.00 99 1013.5
20260506071520 53 6 0.0 0.0 0.00 0.00 0.00 99 1013.4
20260506071017 53 6 0.0 0.0 0.00 0.00 0.00 99 1013.3
20260506070514 53 6 0.0 0.0 0.00 0.00 0.00 99 1013.3
20260506062451 53 6 0.0 0.0 0.00 0.00 0.00 99 1013.1
20260506061947 53 6 0.0 0.0 0.00 0.00 0.00 99 1013.2
20260506061444 53 6 0.0 0.0 0.00 0.00 0.00 99 1013.1
20260506060942 53 6 0.0 0.0 0.00 0.00 0.00 99 1013.1
20260506060440 53 6 0.0 0.0 0.00 0.00 0.00 99 1013.1
20260506051412 54 5 0.0 0.0 0.00 0.00 0.00 98 1013.0
20260506050909 54 5 0.0 0.0 0.00 0.00 0.00 98 1013.1
20260506050406 54 5 0.0 0.0 0.00 0.00 0.00 98 1012.9
20260506044857 54 5 0.0 0.0 0.00 0.00 0.00 97 1012.8
20260506044355 54 5 0.0 0.0 0.00 0.00 0.00 97 1012.8
20260506043851 54 5 0.0 0.0 0.00 0.00 0.00 97 1012.8
20260506043348 54 5 0.0 0.0 0.00 0.00 0.00 97 1012.7
20260506042847 54 4 0.0 0.0 0.00 0.00 0.00 97 1012.5
20260506042346 54 4 0.0 0.0 0.00 0.00 0.00 97 1012.6
20260506041844 54 4 0.0 0.0 0.00 0.00 0.00 97 1012.6
20260506041341 54 4 0.0 0.0 0.00 0.00 0.00 96 1012.5
20260506040837 54 4 0.0 0.0 0.00 0.00 0.00 96 1012.4
20260506040335 54 4 0.0 0.0 0.00 0.00 0.00 96 1012.4
20260506035831 54 4 0.0 0.0 0.00 0.00 0.00 96 1012.3
20260506035329 54 4 0.0 0.0 0.00 0.00 0.00 96 1012.3
20260506034826 54 4 0.0 0.0 0.00 0.00 0.00 96 1012.1
20260506034323 54 3 0.0 0.0 0.00 0.00 0.00 96 1012.1
20260506033820 54 345 0.0 0.0 0.00 0.00 0.00 96 1012.2
20260506033317 54 344 0.0 0.0 0.00 0.00 0.00 95 1012.2
20260506032814 54 343 0.0 0.0 0.00 0.00 0.00 95 1012.0
20260506032311 54 344 0.0 0.0 0.00 0.00 0.00 95 1012.0
20260506031807 54 346 0.0 0.0 0.00 0.00 0.00 94 1012.0
20260506031305 55 347 0.0 0.0 0.00 0.00 0.00 94 1012.0
20260506030802 55 347 0.0 0.0 0.00 0.00 0.00 94 1011.7
20260506030300 55 346 0.0 0.0 0.00 0.00 0.00 94 1012.1
20260506025757 55 348 0.0 0.0 0.00 0.00 0.00 94 1011.9
20260506025253 55 347 0.0 0.0 0.00 0.00 0.00 94 1011.8
20260506024750 55 348 0.0 1.0 0.00 0.00 0.00 94 1011.6
20260506024247 55 348 0.0 0.0 0.00 0.00 0.00 93 1011.9
20260506023743 55 340 1.0 1.0 0.00 0.00 0.00 93 1011.6
20260506023240 55 349 0.0 0.0 0.00 0.00 0.00 93 1011.5
20260506022736 55 348 0.0 0.0 0.00 0.00 0.00 93 1011.5
20260506022235 55 330 1.0 1.0 0.00 0.00 0.00 92 1011.5
20260506021733 55 343 0.0 0.0 0.00 0.00 0.00 92 1011.3
20260506021229 55 348 0.0 0.0 0.00 0.00 0.00 92 1011.4
20260506020726 55 348 0.0 0.0 0.00 0.00 0.00 92 1011.5
20260506020224 55 345 1.0 1.0 0.00 0.00 0.00 91 1011.4
20260506015721 55 347 0.0 0.0 0.00 0.00 0.00 90 1011.3
20260506015218 56 338 0.0 0.0 0.00 0.00 0.00 90 1011.5
20260506014710 56 346 1.0 1.0 0.00 0.00 0.00 90 1011.4
20260506014206 56 348 0.0 0.0 0.00 0.00 0.00 89 1011.4
20260506013704 56 335 1.0 1.0 0.00 0.00 0.00 89 1011.3
20260506013201 56 339 1.0 1.0 0.00 0.00 0.00 89 1011.3
20260506012657 56 332 0.0 0.0 0.00 0.00 0.00 89 1011.3
20260506012154 56 347 0.0 0.0 0.00 0.00 0.00 88 1011.1
20260506011651 56 335 0.0 1.0 0.00 0.00 0.00 89 1011.2
20260506011147 56 339 0.0 0.0 0.00 0.00 0.00 89 1011.4
20260506010646 56 347 0.0 1.0 0.00 0.00 0.00 88 1011.4
20260506010143 56 349 0.0 0.0 0.00 0.00 0.00 88 1011.2
20260506005640 56 348 0.0 0.0 0.00 0.00 0.00 89 1011.4
20260506005137 56 349 0.0 0.0 0.00 0.00 0.00 89 1011.3
20260506004632 56 341 1.0 1.0 0.00 0.00 0.00 88 1011.3
20260506004129 56 345 0.0 0.0 0.00 0.00 0.00 88 1011.3
20260506003620 57 345 1.0 1.0 0.00 0.00 0.00 87 1011.2
20260506003116 57 346 0.0 1.0 0.00 0.00 0.00 88 1011.3
20260506002613 57 329 1.0 1.0 0.00 0.00 0.00 87 1011.2
20260506002108 57 351 1.0 1.0 0.00 0.00 0.00 87 1011.3
20260506001604 57 343 0.0 1.0 0.00 0.00 0.00 86 1011.2
20260506001102 57 336 0.0 0.0 0.00 0.00 0.00 87 1011.4
20260506000559 57 338 0.0 0.0 0.00 0.00 0.00 86 1011.4
20260506000056 57 340 1.0 1.0 0.00 0.00 0.00 86 1011.3
20260505235555 57 347 0.0 0.0 0.00 0.00 0.00 86 1011.3
20260505235051 57 339 1.0 1.0 0.00 0.00 0.00 86 1011.1
20260505234548 57 346 2.0 2.0 0.00 0.00 0.00 86 1011.3
20260505234045 57 347 1.0 1.0 0.00 0.00 0.00 87 1011.3
20260505233543 57 345 1.0 1.0 0.00 0.00 0.00 86 1011.4
20260505233040 57 330 1.0 2.0 0.00 0.00 0.00 87 1011.3
20260505232538 57 344 1.0 1.0 0.00 0.00 0.00 87 1011.7
20260505232035 57 349 0.0 0.0 0.00 0.00 0.00 87 1011.7
20260505231532 57 339 1.0 1.0 0.00 0.00 0.00 87 1011.6
20260505231031 57 332 1.0 1.0 0.00 0.00 0.00 86 1011.6
20260505230527 57 329 1.0 1.0 0.00 0.00 0.00 85 1011.6
20260505230024 57 340 1.0 1.0 0.00 0.00 0.00 86 1011.3
20260505225521 57 0 0.0 0.0 0.00 0.00 0.00 86 1011.6
20260505225017 57 342 1.0 1.0 0.00 0.00 0.00 85 1011.8
20260505224514 57 319 1.0 1.0 0.00 0.00 0.00 85 1011.5
20260505224011 57 335 2.0 2.0 0.00 0.00 0.00 84 1011.7
20260505223508 57 320 2.0 2.0 0.00 0.00 0.00 84 1011.6
20260505223004 57 319 3.0 3.0 0.00 0.00 0.00 83 1011.4
20260505222500 57 346 2.0 2.0 0.00 0.00 0.00 83 1011.8
20260505221955 58 344 0.0 0.0 0.00 0.00 0.00 83 1012.0
20260505221453 58 349 2.0 2.0 0.00 0.00 0.00 84 1011.7
20260505220950 58 338 1.0 2.0 0.00 0.00 0.00 85 1011.8
20260505220447 58 345 0.0 0.0 0.00 0.00 0.00 85 1011.6
20260505215945 58 339 0.0 1.0 0.00 0.00 0.00 84 1011.7
20260505215443 58 344 1.0 2.0 0.00 0.00 0.00 84 1011.6
20260505214940 58 342 1.0 1.0 0.00 0.00 0.00 84 1011.7
20260505214438 58 349 1.0 2.0 0.00 0.00 0.00 85 1011.6
20260505213935 58 341 0.0 1.0 0.00 0.00 0.00 84 1011.3
20260505213433 59 336 1.0 1.0 0.00 0.00 0.00 84 1011.4
20260505212929 59 316 2.0 2.0 0.00 0.00 0.00 82 1011.3
20260505212426 60 320 2.0 2.0 0.00 0.00 0.00 82 1011.2
20260505211922 60 330 1.0 2.0 0.00 0.00 0.00 82 1011.1
20260505211420 59 342 1.0 1.0 0.00 0.00 0.00 83 1011.1
20260505210916 59 311 2.0 2.0 0.00 0.00 0.00 82 1011.3
20260505210413 59 329 2.0 2.0 0.00 0.00 0.00 82 1011.3
20260505205910 58 358 2.0 3.0 0.00 0.00 0.00 83 1011.0
20260505205408 58 332 3.0 3.0 0.00 0.00 0.00 83 1011.3
20260505204905 58 347 2.0 2.0 0.00 0.00 0.00 84 1011.2
20260505204403 58 337 2.0 2.0 0.00 0.00 0.00 83 1011.3
20260505203900 58 352 0.0 1.0 0.00 0.00 0.00 84 1011.2
20260505203356 58 339 1.0 2.0 0.00 0.00 0.00 83 1011.2
20260505202852 58 326 2.0 2.0 0.00 0.00 0.00 83 1011.1
20260505202349 58 327 1.0 2.0 0.00 0.00 0.00 85 1011.1
20260505201845 58 342 3.0 3.0 0.00 0.00 0.00 83 1011.3
20260505201343 59 357 0.0 0.0 0.00 0.00 0.00 85 1011.2
20260505200841 58 346 0.0 0.0 0.00 0.00 0.00 85 1011.2
20260505200338 58 0 0.0 0.0 0.00 0.00 0.00 84 1011.2
20260505195833 58 343 0.0 0.0 0.00 0.00 0.00 87 1011.3
20260505195330 58 337 1.0 1.0 0.00 0.00 0.00 86 1011.2
20260505194827 57 347 0.0 1.0 0.00 0.00 0.00 86 1011.3
20260505194325 57 350 1.0 1.0 0.00 0.00 0.00 87 1011.1
20260505193820 57 355 0.0 0.0 0.00 0.00 0.00 87 1011.3
20260505193318 57 352 1.0 1.0 0.00 0.00 0.00 87 1011.2
20260505192816 57 354 0.0 0.0 0.00 0.00 0.00 86 1011.4
20260505192314 57 353 0.0 0.0 0.00 0.00 0.00 86 1011.3
20260505191811 57 355 0.0 0.0 0.00 0.00 0.00 87 1011.3
20260505191309 57 355 1.0 1.0 0.00 0.00 0.00 86 1011.5
20260505190806 57 355 0.0 0.0 0.00 0.00 0.00 87 1011.3
20260505190301 56 355 0.0 0.0 0.00 0.00 0.00 88 1011.5
20260505185757 56 353 1.0 1.0 0.00 0.00 0.00 88 1011.5
20260505185254 56 355 1.0 1.0 0.00 0.00 0.00 88 1011.5
20260505184750 56 356 0.0 0.0 0.00 0.00 0.00 87 1011.4
20260505184247 56 356 0.0 0.0 0.00 0.00 0.00 90 1011.5
20260505183744 56 355 0.0 0.0 0.00 0.00 0.00 89 1011.2
20260505183241 56 354 0.0 0.0 0.00 0.00 0.00 90 1011.5
20260505182738 56 351 0.0 0.0 0.00 0.00 0.00 91 1011.4
20260505182235 55 352 0.0 0.0 0.00 0.00 0.00 91 1011.4
20260505181731 55 354 0.0 0.0 0.00 0.00 0.00 91 1011.5
20260505181229 55 354 0.0 0.0 0.00 0.00 0.00 91 1011.4
20260505180725 55 354 0.0 0.0 0.00 0.00 0.00 92 1011.2
20260505180222 56 353 1.0 1.0 0.00 0.00 0.00 92 1011.4
20260505175718 56 356 0.0 0.0 0.00 0.00 0.00 92 1011.4
20260505175214 56 356 0.0 0.0 0.00 0.00 0.00 92 1011.3
20260505174711 55 356 0.0 0.0 0.00 0.00 0.00 93 1011.5
20260505174208 55 354 1.0 1.0 0.00 0.00 0.00 92 1011.2
20260505173704 55 354 1.0 1.0 0.00 0.00 0.00 92 1011.0
20260505173201 55 354 1.0 1.0 0.00 0.00 0.00 92 1011.0
20260505172658 55 353 1.0 1.0 0.00 0.00 0.00 92 1011.0
20260505172155 55 356 0.0 1.0 0.00 0.00 0.00 92 1010.9
20260505171655 55 354 0.0 1.0 0.00 0.00 0.00 91 1011.1
20260505171153 55 348 2.0 2.0 0.00 0.00 0.00 91 1011.1
20260505170650 56 355 1.0 1.0 0.00 0.00 0.00 91 1011.2
20260505170147 56 356 0.0 0.0 0.00 0.00 0.00 91 1011.1
20260505165646 56 355 1.0 2.0 0.00 0.00 0.00 91 1011.0
20260505165142 56 358 0.0 0.0 0.00 0.00 0.00 91 1011.1
20260505164638 56 358 0.0 0.0 0.00 0.00 0.00 92 1010.9
20260505164136 56 358 0.0 0.0 0.00 0.00 0.00 92 1011.0
20260505163634 55 354 0.0 0.0 0.00 0.00 0.00 92 1010.8
20260505163131 56 11 0.0 0.0 0.00 0.00 0.00 93 1010.9
20260505162628 55 11 0.0 0.0 0.00 0.00 0.00 93 1010.9
20260505162126 55 11 0.0 0.0 0.00 0.00 0.00 93 1010.9
20260505161623 55 11 0.0 0.0 0.00 0.00 0.00 94 1010.9
20260505161120 55 11 0.0 0.0 0.00 0.00 0.00 93 1010.9
20260505160618 54 11 0.0 0.0 0.00 0.00 0.00 94 1011.0
20260505160115 54 11 0.0 0.0 0.00 0.00 0.00 97 1010.8
20260505153055 53 15 0.0 0.0 0.00 0.00 0.00 99 1010.7
20260505152551 53 15 0.0 0.0 0.00 0.00 0.00 99 1010.8
20260505152047 53 15 0.0 0.0 0.00 0.00 0.00 99 1010.9
20260505151542 53 15 0.0 0.0 0.00 0.00 0.00 99 1010.6
20260505151040 53 15 0.0 0.0 0.00 0.00 0.00 99 1010.8
20260505150536 52 15 0.0 0.0 0.00 0.00 0.00 99 1010.8
20260505140501 51 15 0.0 0.0 0.00 0.00 0.00 99 1010.4
20260505124915 51 15 0.0 0.0 0.00 0.00 0.00 99 1009.8
20260505124412 51 15 0.0 0.0 0.00 0.00 0.00 99 1009.9
20260505123908 51 15 0.0 0.0 0.00 0.00 0.00 99 1009.8
20260505123404 51 15 0.0 0.0 0.00 0.00 0.00 99 1009.8
20260505122900 51 15 0.0 0.0 0.00 0.00 0.00 99 1009.6
20260505122358 51 15 0.0 0.0 0.00 0.00 0.00 99 1009.8
20260505121854 51 15 0.0 0.0 0.00 0.00 0.00 99 1009.7
20260505121351 51 15 0.0 0.0 0.00 0.00 0.00 99 1009.8
20260505120847 51 15 0.0 0.0 0.00 0.00 0.00 99 1009.9
20260505120343 51 15 0.0 0.0 0.00 0.00 0.00 99 1009.5
20260505115842 51 15 0.0 0.0 0.00 0.00 0.00 99 1009.6
20260505115340 51 15 0.0 0.0 0.00 0.00 0.00 99 1009.8
20260505114838 51 15 0.0 0.0 0.00 0.00 0.00 99 1009.8
20260505114334 51 15 0.0 0.0 0.00 0.00 0.00 99 1009.7
20260505113830 51 15 0.0 0.0 0.00 0.00 0.00 99 1009.8
20260505113327 51 15 0.0 0.0 0.00 0.00 0.00 99 1009.6
20260505112823 51 15 0.0 0.0 0.00 0.00 0.00 99 1009.6
20260505112320 51 15 0.0 0.0 0.00 0.00 0.00 99 1009.8
20260505111816 51 15 0.0 0.0 0.00 0.00 0.00 99 1009.7
20260505111311 51 15 0.0 0.0 0.00 0.00 0.00 99 1009.8
20260505110807 51 15 0.0 0.0 0.00 0.00 0.00 99 1009.8
20260505110305 51 15 0.0 0.0 0.00 0.00 0.00 99 1009.7
20260505101739 51 14 0.0 0.0 0.00 0.00 0.00 99 1009.8
20260505101235 51 14 0.0 0.0 0.00 0.00 0.00 99 1010.0
20260505100732 51 14 0.0 0.0 0.00 0.00 0.00 99 1009.8
20260505100229 51 14 0.0 0.0 0.00 0.00 0.00 99 1009.9
20260505095724 51 14 0.0 0.0 0.00 0.00 0.00 99 1009.8
20260505095222 51 14 0.0 0.0 0.00 0.00 0.00 99 1009.9
20260505094718 51 14 0.0 0.0 0.00 0.00 0.00 99 1009.8
20260505094214 51 14 0.0 0.0 0.00 0.00 0.00 99 1009.8
20260505093711 51 14 0.0 0.0 0.00 0.00 0.00 99 1009.9
20260505093209 51 14 0.0 0.0 0.00 0.00 0.00 99 1009.9
20260505092705 51 14 0.0 0.0 0.00 0.00 0.00 99 1010.0
20260505092204 51 14 0.0 0.0 0.00 0.00 0.00 99 1010.1
20260505091700 52 14 0.0 0.0 0.00 0.00 0.00 99 1010.2
20260505091158 51 14 0.0 0.0 0.00 0.00 0.00 99 1009.9
20260505090656 51 14 0.0 0.0 0.00 0.00 0.00 99 1010.0
20260505090154 51 14 0.0 0.0 0.00 0.00 0.00 99 1010.0
20260505085651 51 14 0.0 0.0 0.00 0.00 0.00 99 1010.0
20260505085149 52 14 0.0 0.0 0.00 0.00 0.00 99 1010.2
20260505084646 52 14 0.0 0.0 0.00 0.00 0.00 99 1010.1
20260505084145 52 14 0.0 0.0 0.00 0.00 0.00 99 1010.1
20260505083642 52 14 0.0 0.0 0.00 0.00 0.00 99 1010.3
20260505083138 52 14 0.0 0.0 0.00 0.00 0.00 99 1010.4
20260505082634 52 14 0.0 0.0 0.00 0.00 0.00 99 1010.4
20260505082131 52 14 0.0 0.0 0.00 0.00 0.00 99 1010.4
20260505081627 52 14 0.0 0.0 0.00 0.00 0.00 99 1010.2
20260505081125 52 14 0.0 0.0 0.00 0.00 0.00 99 1010.4
20260505080621 52 14 0.0 0.0 0.00 0.00 0.00 99 1010.4